sat.trackr.live / text

‹ back to catalog

STARLINK-5812

NORAD 55774 · 2023-028AK

PAYLOAD ACTIVE UNKNOWN

§ Identity

Operator
Country
US
Launch date
2023-03-03
Launch site
AFWTR
Launch vehicle
Mass (kg)
RCS (m²)

Purposes: comms

External: N2YO · Heavens-Above · Gunter

§ Orbital elements

Epoch: 2026-09-20T23:00:52.027200Z

Period
96.11 min
Inclination
69.9981°
Eccentricity
0.0002678
Mean motion
14.98330998 rev/d
Perigee alt
570.2 km
Apogee alt
573.9 km
Semi-major
6,950.2 km
B*
2.1147e-5
RAAN
92.0701°
Arg perigee
273.1908°
Mean anomaly
86.8945°
Rev number
19,578

§ Raw data

STARLINK-58121 55774U 23028AK  26263.95893550  .00000159  00000+0  21147-4 0  99992 55774  69.9981  92.0701 0002678 273.1908  86.8945 14.98330998195788

JSON: /api/v1/satellites/55774 · /tle

For live sub-satellite position, see the globe view (requires WebGL).

§ Visibility from observer

Set your observer location to see the next 7 days of passes ≥ 10°. The values pass through the URL so the page stays shareable.

No JS? Fill the form by hand. The geolocation button needs JavaScript.